AGILA

operational
NORAD ID: 62456 Int'l Des: 2024-252 Owner: ASTRU/ORPH Country: UK
HEOCIRCULARGSOGEO

关于 AGILA

正在加载描述...

实时位置

正在加载3D地球...

即将过境

高度历史

Altitude vs Time

uPlot chart will show altitude changes over time

两行轨道根数

1 62456U 24252C 26061.28654248 -.00000199 00000-0 00000-0 0 9992
2 62456 0.0263 160.4308 0001105 183.7126 71.1919 1.00273019 4086
Epoch: Mar 2, 2026 • Age: 30 hours

当前状态

高度 35782.9 km
速度 3.07 km/s
星下点 -0.05°S, 152.15°E
发射日期 Dec 29, 2024
运行时间 1.1 years
类型 other

技术详情

分类 Payload
质量 400.00 kg
干质量 400.00 kg
总质量 400.00 kg
长度 1.50 m
直径 1.50 m
跨度 10.00 m
形状 Box +22 pan
制造商 ASTRAN
平台类型 MicroGEO
阶段状态 In Orbit
所有者/国家 ASTRU/ORPH/UK

大型星座

Loading constellations...